Tracking 30995 objects as of 7-Jul-2025
HD Live streaming from Space Station
objects crossing your sky now

TITAN 3C TRANSTAGE R/B

Track TITAN 3C TRANSTAGE R/B now!


NORAD ID: 12371
Int'l Code: 1981-025C
Perigee: 35,262.9 km
Apogee: 35,733.0 km
Inclination: 7.4 °
Period: 1,421.0 minutes
Semi major axis: 41868 km
RCS: Unknown
Launch date: March 16, 1981
Source: United States (US)
Launch site: AIR FORCE EASTERN TEST RANGE (AFETR)

Note: This is a ROCKET BODY
Your satellite tracking list
Your tracking list is empty




NASA's NSSDC Master Catalog

Two Line Element Set (TLE):
1 12371U 81025C   25187.71513322 -.00000217  00000-0  00000+0 0  9997
2 12371   7.4291 301.3432 0056140 317.3501  42.3637  1.01336429 23538
Source of the keplerian elements: McCants